• In Belarus
  • List of Countries
  • For 7 days
  • Water Temperature
  • Satellite Maps
  • Weather Map
  • Weather Widgets
  • user-avatar
    Login

    Hourly Weather Antwerp

    Today, 18 July, Thursday

    Time Temperature Precipitation Wind Pressure Humidity
    00:00 +19°C° 0 mm 2 mps 758 mmHg 61%
    01:00 +19°C° 0 mm 2 mps 758 mmHg 63%
    02:00 +18°C° 0 mm 2 mps 758 mmHg 65%
    03:00 +18°C° 0 mm 2 mps 758 mmHg 67%
    04:00 +18°C° 0 mm 2 mps 758 mmHg 67%
    05:00 +18°C° 0 mm 2 mps 758 mmHg 66%
    06:00 +18°C° 0 mm 3 mps 758 mmHg 65%
    07:00 +19°C° 0 mm 3 mps 758 mmHg 64%
    08:00 +20°C° 0 mm 3 mps 758 mmHg 62%
    09:00 +20°C° 0 mm 3 mps 758 mmHg 61%
    10:00 +21°C° 0 mm 4 mps 758 mmHg 60%
    11:00 +21°C° 0 mm 4 mps 757 mmHg 59%
    12:00 +22°C° 0 mm 4 mps 757 mmHg 59%
    13:00 +21°C° 0 mm 4 mps 757 mmHg 63%
    14:00 +21°C° 0 mm 4 mps 757 mmHg 68%
    15:00 +20°C° 0 mm 4 mps 757 mmHg 73%
    16:00 +21°C° 0 mm 4 mps 757 mmHg 73%
    17:00 +21°C° 0 mm 3 mps 757 mmHg 73%
    18:00 +21°C° 0 mm 3 mps 757 mmHg 73%
    19:00 +20°C° 0 mm 3 mps 758 mmHg 76%
    20:00 +19°C° 0 mm 3 mps 758 mmHg 78%
    21:00 +18°C° 0 mm 3 mps 758 mmHg 81%
    22:00 +18°C° 0 mm 3 mps 758 mmHg 81%
    23:00 +17°C° 0 mm 3 mps 758 mmHg 81%

    Tomorrow, 19 July, Friday

    Time Temperature Precipitation Wind Pressure Humidity
    00:00 +16°C° 0 mm 3 mps 758 mmHg 81%
    01:00 +16°C° 0 mm 3 mps 759 mmHg 84%
    02:00 +14°C° 0 mm 3 mps 759 mmHg 87%
    03:00 +15°C° 0 mm 2 mps 759 mmHg 90%
    04:00 +14°C° 0 mm 3 mps 759 mmHg 88%
    05:00 +16°C° 0 mm 3 mps 759 mmHg 85%
    06:00 +17°C° 0 mm 3 mps 759 mmHg 83%
    07:00 +18°C° 0 mm 3 mps 759 mmHg 77%
    08:00 +20°C° 0 mm 3 mps 759 mmHg 70%
    09:00 +22°C° 0 mm 3 mps 760 mmHg 64%
    10:00 +24°C° 0 mm 3 mps 760 mmHg 59%
    11:00 +25°C° 0 mm 3 mps 760 mmHg 55%
    12:00 +25°C° 0 mm 3 mps 759 mmHg 50%
    13:00 +26°C° 0 mm 3 mps 759 mmHg 49%
    14:00 +26°C° 0 mm 3 mps 759 mmHg 47%
    15:00 +26°C° 0 mm 3 mps 759 mmHg 45%
    16:00 +26°C° 0 mm 2 mps 759 mmHg 49%
    17:00 +25°C° 0 mm 2 mps 759 mmHg 53%
    18:00 +24°C° 0 mm 2 mps 759 mmHg 58%
    19:00 +23°C° 0 mm 2 mps 759 mmHg 61%
    20:00 +22°C° 0 mm 1 mps 759 mmHg 65%
    21:00 +21°C° 0 mm 1 mps 759 mmHg 69%
    22:00 +19°C° 0 mm 2 mps 759 mmHg 68%
    23:00 +19°C° 0 mm 2 mps 759 mmHg 68%

    Day after tomorrow, 20 July, Saturday

    Time Temperature Precipitation Wind Pressure Humidity
    00:00 +19°C° 0 mm 2 mps 759 mmHg 67%
    01:00 +19°C° 0 mm 3 mps 758 mmHg 70%
    02:00 +19°C° 0 mm 3 mps 758 mmHg 73%
    03:00 +18°C° 0 mm 3 mps 758 mmHg 75%
    04:00 +19°C° 0.2 mm 4 mps 758 mmHg 76%
    05:00 +20°C° 0.2 mm 4 mps 757 mmHg 76%
    06:00 +21°C° 0.2 mm 5 mps 757 mmHg 76%
    07:00 +20°C° 2.8 mm 4 mps 757 mmHg 80%
    08:00 +20°C° 2.8 mm 4 mps 758 mmHg 83%
    09:00 +20°C° 2.8 mm 4 mps 758 mmHg 87%
    10:00 +22°C° 0.1 mm 4 mps 758 mmHg 78%
    11:00 +25°C° 0.1 mm 4 mps 758 mmHg 70%
    12:00 +27°C° 0.1 mm 5 mps 757 mmHg 62%
    13:00 +27°C° 0.9 mm 5 mps 757 mmHg 63%
    14:00 +27°C° 0.9 mm 6 mps 757 mmHg 64%
    15:00 +27°C° 0.9 mm 6 mps 757 mmHg 64%
    16:00 +26°C° 0.6 mm 6 mps 757 mmHg 67%
    17:00 +25°C° 0.6 mm 5 mps 758 mmHg 71%
    18:00 +23°C° 0.6 mm 4 mps 758 mmHg 74%
    19:00 +21°C° 0 mm 4 mps 758 mmHg 75%
    20:00 +20°C° 0 mm 4 mps 759 mmHg 76%
    21:00 +18°C° 0 mm 4 mps 759 mmHg 77%
    22:00 +18°C° 0 mm 4 mps 760 mmHg 80%
    23:00 +17°C° 0 mm 4 mps 760 mmHg 83%

    21 July, Sunday

    Time Temperature Precipitation Wind Pressure Humidity
    00:00 +17°C° 0 mm 4 mps 760 mmHg 86%
    01:00 +17°C° 0 mm 4 mps 761 mmHg 88%
    02:00 +17°C° 0 mm 4 mps 761 mmHg 90%
    03:00 +17°C° 0 mm 4 mps 762 mmHg 92%
    04:00 +17°C° 0 mm 4 mps 762 mmHg 89%
    05:00 +18°C° 0 mm 4 mps 762 mmHg 87%
    06:00 +19°C° 0 mm 4 mps 763 mmHg 85%
    07:00 +20°C° 0 mm 4 mps 763 mmHg 79%
    08:00 +21°C° 0 mm 4 mps 764 mmHg 73%
    09:00 +22°C° 0 mm 4 mps 764 mmHg 67%
    10:00 +22°C° 0 mm 4 mps 765 mmHg 65%
    11:00 +23°C° 0 mm 4 mps 765 mmHg 63%
    12:00 +24°C° 0 mm 3 mps 765 mmHg 60%
    13:00 +24°C° 0 mm 3 mps 765 mmHg 58%
    14:00 +25°C° 0 mm 3 mps 766 mmHg 56%
    15:00 +25°C° 0 mm 3 mps 766 mmHg 54%
    16:00 +24°C° 0 mm 3 mps 766 mmHg 57%
    17:00 +22°C° 0 mm 3 mps 766 mmHg 60%
    18:00 +21°C° 0 mm 2 mps 766 mmHg 63%
    19:00 +20°C° 0 mm 2 mps 767 mmHg 65%
    20:00 +19°C° 0 mm 2 mps 767 mmHg 68%
    21:00 +18°C° 0 mm 1 mps 767 mmHg 71%
    22:00 +18°C° 0 mm 1 mps 767 mmHg 71%
    23:00 +16°C° 0 mm 1 mps 767 mmHg 72%

    22 July, Monday

    Time Temperature Precipitation Wind Pressure Humidity
    00:00 +16°C° 0 mm 1 mps 767 mmHg 72%
    01:00 +16°C° 0 mm 1 mps 767 mmHg 74%
    02:00 +16°C° 0 mm 1 mps 767 mmHg 76%
    03:00 +15°C° 0 mm 1 mps 766 mmHg 78%
    04:00 +16°C° 0 mm 1 mps 767 mmHg 77%
    05:00 +18°C° 0 mm 1 mps 767 mmHg 76%
    06:00 +19°C° 0 mm 1 mps 767 mmHg 75%
    07:00 +20°C° 0 mm 2 mps 767 mmHg 69%
    08:00 +23°C° 0 mm 2 mps 767 mmHg 63%
    09:00 +25°C° 0 mm 2 mps 767 mmHg 57%
    10:00 +26°C° 0 mm 2 mps 767 mmHg 52%
    11:00 +28°C° 0 mm 1 mps 766 mmHg 47%
    12:00 +29°C° 0 mm 1 mps 766 mmHg 42%
    13:00 +30°C° 0 mm 1 mps 766 mmHg 41%
    14:00 +30°C° 0 mm 1 mps 766 mmHg 39%
    15:00 +31°C° 0 mm 1 mps 766 mmHg 38%
    16:00 +30°C° 0 mm 2 mps 765 mmHg 43%
    17:00 +29°C° 0 mm 2 mps 765 mmHg 49%
    18:00 +28°C° 0 mm 3 mps 765 mmHg 54%
    19:00 +26°C° 0 mm 3 mps 765 mmHg 59%
    20:00 +25°C° 0 mm 3 mps 765 mmHg 65%
    21:00 +22°C° 0 mm 3 mps 766 mmHg 70%
    22:00 +21°C° 0 mm 3 mps 765 mmHg 69%
    23:00 +21°C° 0 mm 3 mps 765 mmHg 69%

    23 July, Tuesday

    Time Temperature Precipitation Wind Pressure Humidity
    00:00 +20°C° 0 mm 2 mps 765 mmHg 68%
    01:00 +20°C° 0 mm 2 mps 765 mmHg 71%
    02:00 +19°C° 0 mm 2 mps 764 mmHg 73%
    03:00 +19°C° 0 mm 2 mps 764 mmHg 76%
    04:00 +20°C° 0 mm 2 mps 764 mmHg 73%
    05:00 +21°C° 0 mm 2 mps 764 mmHg 71%
    06:00 +21°C° 0 mm 2 mps 764 mmHg 69%
    07:00 +25°C° 0 mm 2 mps 764 mmHg 62%
    08:00 +27°C° 0 mm 2 mps 763 mmHg 55%
    09:00 +29°C° 0 mm 2 mps 763 mmHg 48%
    10:00 +31°C° 0 mm 3 mps 763 mmHg 44%
    11:00 +33°C° 0 mm 3 mps 763 mmHg 40%
    12:00 +35°C° 0 mm 3 mps 762 mmHg 36%
    13:00 +35°C° 0 mm 3 mps 762 mmHg 35%
    14:00 +36°C° 0 mm 3 mps 762 mmHg 33%
    15:00 +36°C° 0 mm 2 mps 761 mmHg 32%
    16:00 +35°C° 0 mm 3 mps 761 mmHg 36%
    17:00 +34°C° 0 mm 3 mps 761 mmHg 40%
    18:00 +33°C° 0 mm 3 mps 761 mmHg 45%
    19:00 +31°C° 0 mm 3 mps 761 mmHg 48%
    20:00 +29°C° 0 mm 3 mps 761 mmHg 50%
    21:00 +27°C° 0 mm 3 mps 761 mmHg 53%
    22:00 +27°C° 0 mm 3 mps 761 mmHg 56%
    23:00 +26°C° 0 mm 3 mps 761 mmHg 59%
    Show more